Location: Ladd Observatory
(41.8387°N, 71.3996°W)
Time: 14:56:40
(UTC-05:00)

Daily predictions for brighter satellites

Satellite Brightness Start Highest point End
(mag) Time Altitude Azimuth Time Altitude Azimuth Time Altitude Azimuth
Cosmos 2208 Rocket 4.1 17:55:16 10° NNW 18:00:41 62° ENE 18:06:00 10° SSE
SKYMED 2 3.7 17:56:41 10° NNE 18:01:03 87° WNW 18:05:23 10° SSW
Cosmos 2333 Rocket 3.1 17:56:39 10° N 18:01:42 30° NE 18:06:44 10° ESE
METEOR-M 4.2 17:57:40 10° SSE 18:02:53 58° ENE 18:08:07 10° N
Meteor 1-28 Rocket 3.2 18:02:07 10° NNE 18:05:57 89° ESE 18:09:46 10° SSW
Genesis I 4.1 18:05:18 10° NW 18:09:08 52° WSW 18:12:57 10° SSE
Helios 1B rocket 4.4 18:10:22 10° E 18:10:29 10° E 18:10:36 10° E
Meteor 1-11 Rocket 3.9 18:07:28 10° S 18:13:18 86° E 18:19:17 10° N
CZ-3C R/B 4.1 18:12:31 10° SW 18:16:45 12° SSW 18:19:28 10° S
Cosmos 1437 4.4 18:20:06 10° NNE 18:22:22 17° ENE 18:23:54 13° ESE
Okean 1-7 Rocket 3.5 18:19:57 10° N 18:24:29 78° E 18:28:56 10° SSE
Meteor 1-5 Rocket 4.3 18:23:31 10° S 18:29:22 62° E 18:35:08 10° NNE
Cosmos 2285 Rocket 4.0 18:27:07 10° NNW 18:33:34 73° ENE 18:39:57 10° SSE
Cosmos 1238 Rocket 4.4 18:32:44 10° NNW 18:35:22 29° W 18:38:08 10° SSW
Cosmos 1763 Rocket 4.4 18:32:27 10° N 18:36:55 29° ENE 18:40:07 16° ESE
FengYun 1-2 T 4.2 18:34:20 10° SSE 18:39:45 65° ENE 18:45:14 10° N
Hubble Space Telescope 3.1 18:40:37 10° SSW 18:42:27 13° S 18:44:16 10° SSE
Cosmos 2237 Rocket 2.5 18:37:24 10° NNW 18:42:53 45° ENE 18:47:50 12° SE
Cosmos 1455 Rocket 3.7 18:39:09 10° SSE 18:43:01 32° E 18:46:53 10° NNE
Cosmos 2297 Rocket 2.9 18:39:40 10° SSE 18:44:35 31° ESE 18:49:31 10° NE
Cosmos 405 Rocket 2.8 18:43:20 10° N 18:47:20 57° ENE 18:51:15 10° SSE
ALOS 2.2 18:45:37 10° SSE 18:50:17 87° ENE 18:54:59 10° NNW
Cosmos 2219 Rocket 2.1 18:46:33 10° NNW 18:52:11 88° ENE 18:57:49 10° SSE
COSMOS 2428 3.6 18:46:56 10° NNW 18:52:27 52° WSW 18:57:56 10° S
H-2A R/B 2.7 18:49:05 10° SSE 18:52:44 58° ENE 18:56:28 10° N
SAR-Lupe-4 4.0 18:54:41 29° ESE 18:55:55 39° ENE 18:59:17 10° N
Cosmos 371 Rocket 4.3 18:52:00 10° N 18:56:09 27° ENE 18:57:03 25° E
CZ-2D R/B 3.4 18:54:44 17° SE 18:57:27 48° ENE 19:01:09 10° N
SJ-6B 3.9 18:55:28 10° S 18:59:16 46° W 19:03:01 10° NNW
USA 229 DEB 4.2 18:54:24 10° NW 19:01:28 65° WSW 19:08:37 10° SSE
USA 229 4.2 18:54:30 10° NW 19:01:34 66° WSW 19:08:44 10° SSE
Cosmos 2227 Rocket 2.1 18:59:42 10° S 19:05:16 63° ESE 19:10:53 10° NNE
Cosmos 2219 4.5 19:01:01 10° SW 19:06:26 43° WNW 19:11:53 10° NNE
BREEZE-M DEB (TANK) 3.7 19:05:46 10° WNW 19:09:11 87° SSW 19:15:07 21° ESE
Cosmos 468 Rocket 4.1 19:04:05 10° NNW 19:09:21 80° WSW 19:14:38 10° SSE
Resurs 01 Rocket 1.7 19:05:09 10° S 19:09:32 79° WSW 19:13:58 10° NNW
Cosmos 1610 Rocket 4.5 19:06:58 10° S 19:13:11 86° W 19:19:23 10° N
Cosmos 1441 Rocket 3.4 19:09:48 10° N 19:13:43 52° ENE 19:14:08 49° ESE
NOSS 3-1 (A) 4.1 19:06:42 10° NNW 19:14:12 62° NE 19:19:04 26° ESE
Resurs 1-3 3.6 19:10:45 10° S 19:15:08 82° WSW 19:19:33 10° NNW
Spot 2 Rocket 3.6 19:10:53 10° S 19:15:56 76° WSW 19:21:03 10° NNW
ATLAS 2AS CENTAUR R/B 4.1 19:12:28 10° NNW 19:19:14 28° NNE 19:21:50 24° ENE
Meteor 1-12 Rocket 4.2 19:13:46 10° S 19:19:41 69° E 19:25:33 10° NNE
SL-16 R/B 2.6 19:14:54 10° N 19:20:14 40° ENE 19:21:06 37° E
Cosmos 1892 Rocket 3.9 19:16:40 10° NNW 19:21:00 64° W 19:25:20 10° S
GEOS 3 Rocket 3.6 19:20:20 26° NE 19:23:15 61° ESE 19:28:28 10° SSW
ERS-1 Rocket 4.3 19:25:00 23° NE 19:25:00 23° NE 19:27:49 10° N
Atlas Centaur 2 3.8 19:23:16 10° SW 19:29:05 24° S 19:30:22 23° SSE
GPS 2-04 Rocket1 4.0 19:25:23 10° WSW 19:29:08 31° S 19:29:35 30° S
NOSS 3-1 (C) 4.0 19:23:21 10° NW 19:31:00 89° WSW 19:36:32 24° SSE
Envisat 3.1 19:32:28 51° ENE 19:32:34 52° ENE 19:37:29 10° N
Abrixas rocket 3.9 19:29:43 10° WNW 19:32:36 28° NNW 19:32:36 28° NNW
Cosmos 1814 Rocket 4.3 19:27:35 10° NNW 19:32:42 66° WSW 19:36:39 17° S
OTV 4 2.4 19:30:13 10° WSW 19:31:45 24° SW 19:31:45 24° SW
Cosmos 1295 Rocket 4.4 19:29:56 10° S 19:36:03 64° E 19:42:17 10° NNE
SL-8 Rocket 4.0 19:38:21 43° SE 19:39:55 53° E 19:46:02 10° NNE
Cosmos 1980 4.2 19:37:10 10° NNW 19:42:41 56° WSW 19:46:48 18° S
Cosmos 2333 Rocket 3.3 19:40:41 10° NW 19:46:05 42° WSW 19:51:27 10° S
Helios 1B rocket 2.7 19:42:05 10° N 19:46:13 67° WNW 19:50:19 10° SSW
USA 32 4.0 19:43:47 10° N 19:49:01 82° W 19:51:05 38° S
Helios 1A 3.9 19:52:56 36° SW 19:54:04 46° W 19:58:05 10° NNW
Cosmos 1975 4.0 19:52:16 10° SSW 19:56:06 42° WNW 19:59:59 10° N
Cosmos 1602 Rocket 4.2 19:54:25 10° NNW 19:57:52 52° NNW 19:57:52 52° NNW
Cosmos 1626 Rocket 4.2 19:58:29 10° NNW 20:02:06 53° NW 20:02:06 53° NW
CZ-3 Stage 3 4.4 19:39:30 10° SW 20:05:46 34° S 20:07:53 31° SSE
Cosmos 841 Rocket 4.0 20:05:05 10° NNW 20:10:05 53° WSW 20:10:38 50° SW
Cosmos 2237 Rocket 4.0 20:22:00 10° NW 20:26:40 26° WSW 20:29:46 17° SW
Cosmos 2297 Rocket 3.5 20:23:15 10° SW 20:28:29 38° WNW 20:33:46 10° N
Cosmos 2227 Rocket 4.4 20:45:29 10° W 20:49:47 22° NW 20:54:07 10° N
SL-16 R/B 3.9 20:59:17 10° NW 21:03:01 28° W 21:03:01 28° W
ATLAS 2AS CENTAUR R/B 3.5 21:03:18 10° NW 21:09:17 54° NNW 21:09:17 54° NNW
